GFSSGP_700_spd_276.txt.gz
Wind_Speed
1 2 2 3 6 1 5 1 5 5 5 7 10 9 10 6 8 6 7 8 10 9 12 11 12 11 10 11 12 12 10 9 9 9 9 9 11 10 9 9 9 5 1 4 5 6 5 4 4
3 4 5 6 2 8 5 2 2 8 12 3 10 9 12 10 12 11 13 17 14 11 12 15 12 14 13 13 13 14 12 11 11 11 11 10 11 13 11 11 9 7 3 2 4 7 6 5 5
4 5 3 2 3 4 4 3 9 6 12 11 15 14 9 12 15 17 19 18 18 15 12 16 16 16 18 13 17 16 15 13 13 12 13 12 12 14 12 12 10 8 4 1 3 5 7 6 5
4 7 9 5 3 6 7 11 7 2 6 15 13 12 11 16 18 20 22 20 21 19 18 20 20 19 19 24 24 22 18 16 14 13 13 14 13 16 16 13 11 10 7 4 4 1 2 5 4
5 9 4 1 6 7 8 8 5 3 11 16 10 14 16 18 19 21 23 25 24 22 22 19 22 23 23 27 22 25 21 19 16 15 14 14 15 16 18 16 14 12 9 7 8 4 1 1 2
7 7 0 2 3 12 10 8 4 6 9 17 13 15 20 24 21 23 26 27 26 26 24 27 24 25 24 29 27 25 18 21 18 16 15 16 16 16 19 18 17 14 11 9 11 7 3 1 1
4 4 4 3 4 7 11 14 11 10 9 17 15 16 24 26 22 24 26 27 28 29 29 25 28 25 26 29 27 29 24 22 17 18 16 16 17 17 18 19 19 15 14 13 11 6 5 4 2
3 2 3 4 2 6 17 14 9 11 16 16 14 14 20 24 24 25 28 30 29 30 32 32 30 28 27 26 28 26 23 30 23 17 18 18 19 18 18 17 16 15 15 17 11 13 10 7 2
4 5 5 6 1 6 12 8 19 14 14 17 15 15 18 20 21 23 24 26 26 26 30 35 36 34 28 34 33 25 21 17 20 19 19 18 19 21 19 20 19 16 15 14 15 12 7 3 1
4 4 9 6 4 5 10 11 12 15 13 18 24 27 23 21 20 19 21 23 23 23 24 28 32 35 34 32 33 25 27 19 14 21 20 20 22 21 22 20 20 19 18 23 14 14 11 6 6
5 4 4 0 5 8 11 15 16 16 13 19 20 22 22 22 22 22 19 21 21 22 23 25 27 31 32 33 35 30 26 27 24 30 29 23 24 25 25 24 22 22 20 23 16 17 9 5 7
3 3 1 6 9 12 13 15 16 17 18 19 21 21 20 21 22 21 20 19 19 20 22 24 26 28 30 31 29 30 28 28 27 29 33 30 31 29 23 27 25 24 22 26 15 14 13 6 8
5 5 4 9 11 12 16 15 16 18 20 19 19 20 20 19 20 21 22 21 19 18 19 20 22 26 29 31 28 27 26 28 27 29 26 28 20 30 27 26 26 27 26 26 19 18 11 13 15
5 6 6 10 13 14 17 14 18 19 21 20 20 19 20 20 20 21 21 21 20 20 17 17 18 21 22 27 25 27 28 28 29 28 31 29 29 22 31 29 26 24 26 27 22 17 13 16 14
5 9 6 11 13 13 16 14 14 17 21 20 19 22 21 22 22 23 22 22 20 19 19 17 16 17 18 20 27 27 29 26 30 31 34 34 32 34 26 27 25 24 25 25 24 22 22 12 17
8 6 10 12 10 11 13 9 14 14 19 19 20 22 24 23 24 22 22 21 20 18 18 18 16 14 13 17 18 19 23 24 27 29 33 35 28 30 21 28 25 26 26 23 28 23 24 22 20
9 7 10 12 9 8 10 7 14 13 17 18 19 19 23 23 25 25 24 21 22 21 18 17 16 15 13 14 11 14 16 18 21 18 24 30 28 26 22 30 24 24 26 23 23 26 23 20 21
6 11 12 11 12 10 9 8 11 13 17 18 18 19 21 23 25 25 25 25 23 21 19 16 15 14 15 13 12 14 12 14 20 19 19 24 29 28 27 34 28 27 27 27 22 22 23 22 19
6 12 14 13 18 11 10 5 9 10 14 16 19 20 20 22 25 25 24 25 25 24 21 17 15 14 12 15 15 14 14 15 23 25 15 21 29 26 26 34 31 31 28 26 24 24 21 21 21
6 13 14 15 15 13 13 5 7 11 14 14 16 18 19 20 23 27 28 28 26 25 24 19 17 15 14 15 17 16 15 17 19 22 15 30 33 36 30 29 28 28 28 28 25 19 16 16 17
8 10 15 20 18 11 16 5 7 12 16 13 15 18 20 22 22 23 25 27 27 26 23 21 18 17 17 17 17 17 17 13 19 23 17 20 27 29 27 29 28 28 25 24 22 18 14 14 14
11 7 15 20 16 5 9 7 9 12 20 16 15 17 19 21 22 23 25 27 26 27 24 22 21 19 18 18 14 14 14 12 15 20 15 17 25 34 35 31 29 27 26 24 23 20 15 14 13
11 13 11 18 11 12 4 6 5 10 11 16 16 15 18 20 20 21 25 26 27 26 25 22 21 16 11 12 13 12 12 13 17 18 15 14 25 29 36 27 28 25 24 24 21 21 20 20 18
11 13 11 8 5 3 5 5 4 7 13 12 13 14 16 20 21 22 23 26 27 27 25 22 20 16 8 7 6 7 6 8 15 14 17 19 19 25 41 36 29 30 24 25 24 20 20 18 16
6 10 4 4 3 4 7 9 5 11 12 9 10 12 15 19 22 25 26 27 29 28 26 23 19 17 10 1 6 5 4 6 9 14 12 13 17 24 36 32 29 28 32 24 20 23 25 21 19
8 3 1 4 2 5 18 7 5 10 10 8 8 10 13 16 21 25 26 27 27 26 24 21 18 16 12 7 6 2 5 8 8 6 5 9 9 30 38 37 32 25 28 27 29 18 25 19 18
2 1 2 4 4 4 5 7 11 8 9 8 8 10 12 16 20 24 26 28 27 25 24 22 17 15 12 5 10 3 4 6 8 7 9 7 12 10 34 38 26 29 29 29 23 25 20 23 25
7 4 1 1 2 4 7 10 9 11 11 8 9 10 13 15 18 22 25 27 27 25 23 21 17 15 13 7 4 6 2 7 10 14 12 8 10 14 16 32 22 32 28 25 25 27 27 26 26
6 6 4 3 3 4 2 5 7 10 13 12 10 10 12 14 17 20 23 27 27 26 23 21 17 15 14 11 6 1 4 7 11 13 14 13 10 9 12 19 10 12 21 21 34 30 25 25 20
12 11 8 5 4 5 4 13 9 9 15 13 12 11 11 11 14 17 20 25 26 26 23 20 20 18 15 13 10 6 2 1 5 8 10 11 11 10 14 17 17 16 13 17 21 15 6 7 4

GFSSGP_700_spd_279.txt.gz
Wind_Speed
3 3 5 7 4 6 6 2 6 10 9 11 10 8 8 10 10 8 14 10 9 11 12 13 14 14 13 13 13 14 13 12 10 10 11 10 13 12 10 8 9 5 3 4 5 6 6 7 6
4 4 5 7 5 2 5 2 7 11 12 10 6 11 9 11 15 13 16 18 19 15 13 14 17 17 16 15 15 15 16 14 13 12 13 12 13 14 11 10 10 8 4 4 5 7 7 6 6
4 8 4 5 1 5 5 8 6 12 16 8 9 11 12 13 15 16 19 18 18 19 18 17 17 19 18 16 22 17 18 16 15 14 14 15 14 16 13 12 11 9 6 4 5 6 5 6 5
6 6 8 3 3 2 8 9 5 0 10 14 10 10 12 14 14 18 23 22 22 21 20 19 21 22 22 22 24 27 25 21 19 17 16 17 16 17 16 15 13 11 7 5 5 2 2 3 3
5 7 5 3 4 7 7 9 7 9 14 16 15 14 16 17 18 21 24 22 23 25 23 23 24 25 26 25 25 23 24 25 21 20 18 18 18 18 19 16 14 11 9 7 7 5 3 1 1
4 8 2 4 4 7 12 6 10 11 14 15 13 16 21 20 19 22 26 26 26 29 29 26 24 26 26 28 22 28 31 30 23 20 19 18 19 20 20 19 16 14 12 10 11 10 6 3 2
2 4 3 2 3 10 9 12 12 8 12 14 13 18 21 17 19 21 25 27 27 26 30 31 30 27 28 32 26 26 24 20 17 19 20 19 19 19 20 20 19 17 14 13 14 11 7 3 3
3 3 3 5 6 11 8 14 9 9 11 10 10 13 20 18 20 22 26 28 28 29 26 30 33 32 30 26 35 22 19 21 22 29 23 20 20 19 20 21 21 19 16 17 16 11 5 4 5
2 4 6 6 5 7 5 9 11 11 15 13 12 13 15 18 19 19 22 26 27 28 29 27 30 32 33 29 27 31 29 23 18 24 22 26 21 21 19 19 19 17 18 18 20 14 8 7 4
0 2 4 5 5 5 5 6 11 13 16 19 20 18 17 19 22 23 19 19 23 24 27 26 27 30 31 29 28 28 25 29 25 25 16 29 25 23 23 21 20 20 18 14 19 16 10 12 6
3 2 3 1 2 1 5 10 11 12 14 16 19 20 19 18 19 21 22 21 19 21 24 26 26 27 29 28 26 27 29 26 22 20 18 22 19 26 25 24 23 22 20 22 21 14 8 7 6
2 5 4 1 1 5 8 10 11 13 14 14 15 17 17 18 18 20 20 21 22 21 21 22 24 24 26 28 27 25 29 31 25 24 25 29 28 26 27 25 25 23 23 20 22 17 18 9 6
4 4 3 2 4 7 8 8 9 12 13 14 15 15 15 17 19 19 19 21 21 20 20 20 21 22 23 25 25 28 23 29 30 29 29 34 31 34 28 29 25 26 24 24 18 16 15 14 6
3 3 2 5 5 8 7 8 12 11 13 14 14 13 14 15 17 19 20 20 21 21 19 19 19 18 18 19 22 24 23 26 29 31 32 34 33 29 32 27 30 28 27 23 22 16 17 13 5
3 2 5 5 9 9 10 8 10 11 13 15 16 16 15 16 16 17 19 21 22 22 21 18 18 18 17 16 18 17 23 28 30 32 33 34 35 27 25 31 32 29 27 25 24 23 14 15 13
3 5 11 14 13 11 11 9 11 10 11 13 16 18 20 20 21 20 20 21 22 23 22 21 18 17 15 14 15 16 18 25 26 31 31 33 32 32 25 22 26 33 28 24 25 25 25 20 18
3 6 11 14 15 11 13 9 14 10 9 13 16 18 20 21 22 22 22 24 25 23 21 19 18 16 16 14 15 14 16 16 21 27 31 33 33 34 29 39 32 34 28 25 23 23 20 18 19
5 6 9 14 20 15 14 11 11 9 9 12 14 17 19 21 21 22 22 23 24 24 20 18 17 16 17 14 14 15 15 11 17 23 27 30 32 30 31 32 25 33 29 29 28 20 19 18 15
7 9 8 13 16 21 15 14 11 11 9 12 13 16 19 19 21 21 21 21 25 25 22 19 17 17 16 16 14 15 13 12 14 18 18 16 21 31 35 32 22 35 29 26 23 20 22 21 17
10 10 8 9 16 21 17 21 13 9 13 10 10 14 16 19 22 22 22 25 27 25 24 21 19 17 18 16 15 14 14 12 11 18 19 18 23 29 32 30 27 31 28 28 25 21 21 17 16
12 11 12 15 14 18 18 12 7 11 13 12 9 11 14 16 19 22 23 26 27 26 25 23 20 18 13 13 14 11 12 13 12 16 19 17 26 30 26 26 33 31 29 29 25 22 18 14 12
12 11 14 18 15 6 14 7 7 12 14 15 10 11 15 19 20 22 24 26 28 27 25 22 19 18 11 3 9 7 8 10 8 7 23 22 12 40 36 34 29 28 26 26 23 21 17 15 13
9 12 15 17 12 6 5 5 6 13 15 21 15 12 14 17 21 24 24 26 27 27 23 21 19 17 12 3 7 9 9 11 6 9 15 22 18 28 25 27 29 27 24 22 22 21 20 17 13
9 11 16 10 6 1 1 4 7 8 16 20 12 10 12 17 21 25 24 26 26 24 23 20 19 19 11 4 4 7 10 9 9 11 10 16 8 31 33 34 29 28 29 25 23 22 20 18 14
6 11 5 4 3 3 3 8 4 11 14 17 12 10 12 17 22 25 27 27 27 25 23 20 18 19 11 5 5 5 9 7 9 10 16 16 15 18 27 25 24 30 31 26 23 23 20 19 17
8 3 0 4 2 5 11 6 4 12 15 16 12 10 11 14 19 23 26 27 26 24 21 19 18 18 12 6 7 5 11 13 8 11 12 16 18 17 24 27 31 27 32 27 20 23 21 21 19
2 2 2 3 4 4 4 5 8 5 13 13 11 9 11 13 18 21 24 26 26 23 21 18 17 17 12 15 7 3 4 9 9 8 10 6 11 18 21 23 26 33 30 29 25 14 19 16 23
7 4 2 2 1 4 6 8 4 6 13 14 13 11 11 14 16 19 21 23 25 24 20 17 16 16 15 7 15 13 7 4 7 6 7 5 8 12 23 26 31 29 22 19 20 19 19 17 19
6 6 5 3 3 4 1 5 5 10 12 22 23 17 13 14 15 17 19 21 23 23 21 18 16 15 14 11 5 3 3 8 8 8 8 6 7 9 8 22 30 31 26 21 20 21 22 18 18
13 10 10 5 4 5 3 11 3 4 13 28 24 21 16 14 14 15 17 18 20 22 22 21 20 19 16 14 12 7 2 2 7 9 11 12 11 11 10 20 18 9 10 28 29 27 27 20 14

GFSSGP_700_spd_285.txt.gz
Wind_Speed
8 8 9 11 7 5 11 8 11 11 10 11 14 17 14 14 15 8 12 11 13 15 15 12 14 18 22 19 18 18 19 18 17 15 15 14 14 15 13 13 12 12 6 6 5 5 5 6 7
7 10 12 12 4 7 10 13 11 10 10 15 18 14 12 14 15 19 24 24 25 25 23 23 20 17 21 23 20 19 20 20 19 19 18 17 16 17 15 14 15 15 9 4 5 5 6 8 9
9 11 8 6 7 9 5 11 10 11 11 11 12 12 13 10 12 16 18 20 22 24 24 23 22 22 19 23 26 14 23 20 21 22 20 20 19 18 18 16 19 16 15 7 5 5 4 6 8
10 10 7 7 7 7 6 7 9 10 10 8 11 11 12 12 14 14 18 20 23 24 25 25 25 24 23 21 24 27 18 23 23 24 25 24 23 21 21 19 19 20 19 13 9 7 4 4 6
8 8 7 7 7 7 6 7 10 10 10 10 12 12 11 11 13 14 16 17 20 24 24 25 28 30 28 25 24 26 24 27 25 28 30 29 31 25 24 22 21 24 23 16 13 10 7 5 4
7 7 6 10 9 8 7 8 8 11 11 9 11 12 10 12 11 10 11 13 16 21 24 25 26 27 30 31 29 27 26 30 25 28 31 34 34 28 26 24 22 27 20 19 15 13 10 8 6
7 8 9 9 8 9 8 8 9 10 10 9 12 12 10 9 9 10 10 13 16 19 22 25 25 27 28 29 32 32 28 27 30 29 25 28 29 25 30 25 28 29 27 27 16 14 13 12 9
7 8 7 6 7 9 7 7 9 9 8 9 9 9 9 10 11 13 14 15 17 19 21 24 25 25 26 27 29 31 34 27 26 25 26 29 34 28 28 33 26 23 17 20 19 15 16 16 15
7 6 8 7 6 6 6 7 8 8 8 7 7 8 10 11 14 16 17 19 18 19 21 22 24 25 25 24 26 29 30 31 29 28 20 22 26 25 32 30 30 22 21 22 26 19 16 11 8
7 6 6 7 6 6 7 8 8 8 7 5 5 8 11 12 14 16 18 21 22 22 23 23 25 26 26 24 23 26 28 28 30 26 25 22 19 29 29 29 31 36 17 23 23 20 17 16 11
7 6 5 5 5 5 7 8 10 10 6 5 5 7 10 12 14 16 18 20 21 22 23 23 24 25 25 25 23 24 25 27 27 30 30 29 28 20 29 32 35 33 35 18 18 20 19 17 14
6 5 5 5 4 6 7 8 11 12 10 7 7 8 9 11 15 17 18 20 21 22 22 23 24 24 25 24 23 21 24 25 29 30 35 33 30 37 27 35 30 29 29 22 23 25 23 20 20
6 5 5 5 5 7 8 9 11 12 11 9 10 11 11 13 15 18 19 22 23 24 25 25 25 24 24 24 23 21 18 24 28 34 28 29 29 33 28 12 37 27 28 27 26 28 19 17 26
6 6 6 6 7 8 8 11 11 13 13 11 11 12 13 14 17 18 19 22 23 24 25 27 27 27 24 25 22 20 18 18 25 28 33 32 33 30 28 24 26 29 28 33 28 26 19 19 13
6 7 6 7 8 7 10 10 10 13 15 13 12 12 12 14 17 18 21 23 25 25 25 27 28 27 25 23 22 20 19 17 20 27 29 38 35 29 36 23 28 36 20 24 29 19 18 17 19
6 7 7 6 7 8 8 7 12 13 17 16 14 13 13 13 14 17 20 22 24 25 26 27 28 27 25 23 21 20 20 18 19 24 27 31 39 35 32 25 18 25 21 20 22 19 21 16 14
7 8 9 8 9 11 10 8 10 14 13 17 15 13 15 12 14 17 21 23 24 26 28 28 28 25 25 23 21 19 20 19 19 20 23 30 38 34 40 32 33 29 31 38 24 23 22 18 14
6 8 9 10 10 13 17 7 10 14 14 16 16 14 16 14 16 18 22 24 25 27 30 30 28 25 24 21 21 19 18 21 20 20 22 25 34 37 34 36 29 26 29 37 33 29 25 12 17
10 11 12 13 15 15 15 16 11 12 10 12 15 14 16 15 17 20 23 25 26 28 29 30 28 25 21 21 19 20 17 18 17 19 20 22 31 35 37 30 34 32 31 23 31 30 23 20 19
11 12 13 13 12 18 17 19 13 2 7 11 13 16 17 15 18 21 25 26 27 27 27 27 25 23 19 19 16 18 17 15 15 16 19 19 22 32 35 33 33 34 30 30 19 33 27 24 26
12 13 12 14 17 19 16 12 8 3 6 11 13 16 18 17 19 23 26 28 28 27 26 24 24 22 21 18 13 16 17 14 15 17 18 17 20 27 33 36 35 34 30 27 23 33 33 27 25
13 11 13 16 15 7 13 6 9 4 5 10 13 16 17 18 20 23 27 29 29 28 26 23 22 21 18 12 9 14 15 15 16 16 16 18 13 16 25 29 32 35 36 32 26 40 36 32 28
11 13 15 18 18 12 8 5 3 4 5 10 13 15 16 17 20 23 27 30 30 28 25 22 19 17 16 12 3 11 14 15 14 9 10 18 13 10 18 23 33 32 40 32 26 33 33 28 26
12 11 18 14 8 2 3 2 3 3 5 9 12 14 17 18 20 24 27 30 30 26 23 20 17 13 11 12 5 7 11 12 13 9 8 17 14 13 20 28 31 39 39 28 32 34 26 22 22
7 10 5 5 3 4 3 9 7 3 5 9 11 13 15 18 20 24 27 29 30 26 21 18 15 12 9 10 11 3 7 9 5 5 7 11 16 15 19 27 32 25 26 29 29 28 25 24 19
7 4 1 4 1 5 13 7 1 2 4 8 12 14 15 18 20 23 27 28 29 27 22 18 13 9 10 10 3 6 3 1 6 8 7 11 7 2 10 24 28 23 30 27 29 28 27 22 20
4 3 2 4 4 3 5 6 8 5 2 9 15 14 14 16 20 23 26 28 28 27 23 20 14 8 8 10 9 7 5 4 7 6 7 9 9 11 5 17 30 23 26 26 30 30 25 22 20
9 5 2 2 1 4 6 8 5 3 3 11 19 14 13 16 19 23 25 26 25 24 23 20 16 8 5 6 9 5 5 2 2 7 6 8 12 10 12 24 25 25 24 24 23 23 24 26 22
9 9 7 3 3 4 1 5 2 4 1 13 19 15 18 16 16 20 22 23 22 23 21 19 16 11 5 4 5 8 8 8 7 7 9 6 5 12 10 10 20 27 25 22 22 23 19 24 18
13 13 12 6 5 7 3 13 9 3 9 21 27 24 21 16 12 14 17 19 19 22 21 18 16 12 9 5 4 12 16 15 13 10 11 10 11 8 10 14 18 25 20 24 21 22 18 10 14

GFSSGP_700_spd_291.txt.gz
Wind_Speed
6 7 8 8 6 7 7 6 10 7 9 11 13 13 14 15 15 10 10 10 12 14 15 17 19 20 19 20 24 27 26 21 22 21 20 18 18 16 15 16 14 15 14 12 11 9 8 8 7
6 7 9 9 7 8 6 9 7 11 11 13 14 15 15 13 14 16 19 22 23 23 24 24 24 25 27 26 22 23 28 28 22 22 21 21 19 18 16 16 16 17 17 13 16 13 10 10 9
6 8 8 5 12 9 4 5 11 12 14 16 16 14 14 12 12 14 16 20 21 22 23 23 23 23 23 24 26 25 23 28 25 23 25 23 21 21 20 18 18 19 20 19 16 15 12 11 11
6 7 7 9 9 9 11 9 9 12 14 15 15 13 12 13 14 15 17 18 18 18 19 19 19 19 21 22 24 26 27 26 27 31 26 23 25 24 23 23 20 21 21 22 22 15 13 13 13
7 7 10 8 10 12 9 10 10 11 14 14 14 12 12 15 16 16 16 16 16 17 18 19 21 22 21 22 23 25 28 27 26 31 32 28 28 25 26 25 25 23 24 28 26 16 13 14 13
8 7 8 10 9 11 11 12 11 11 13 14 15 13 11 15 16 15 16 16 17 18 20 20 21 23 23 24 25 26 26 28 30 28 30 27 31 25 28 28 29 24 26 23 23 18 16 13 12
8 8 12 13 12 11 11 12 11 11 13 15 17 17 13 14 14 15 17 17 18 19 19 20 21 23 24 24 24 26 27 28 28 33 32 32 31 27 35 27 30 30 30 26 29 25 22 14 12
9 10 11 11 10 9 9 11 11 11 13 16 16 12 15 16 16 17 18 18 18 18 19 21 23 23 24 25 26 26 27 27 28 30 34 33 33 27 32 27 32 34 30 24 38 27 26 21 17
10 10 10 13 9 7 7 9 10 11 13 15 16 17 17 17 19 19 18 18 17 19 20 23 24 25 26 26 26 26 25 27 27 28 32 32 32 33 32 28 25 24 24 24 27 32 27 24 19
10 12 10 11 12 9 9 9 11 12 14 14 15 17 17 18 20 20 19 19 20 21 22 24 25 26 26 27 27 26 25 25 26 27 29 30 32 32 30 29 25 25 24 22 26 32 25 27 16
11 12 13 13 13 10 9 9 12 12 13 13 14 15 17 19 21 22 23 22 21 21 23 24 26 27 28 27 26 28 26 25 25 25 27 28 29 31 26 26 26 25 25 29 30 21 29 33 21
11 12 12 12 11 10 10 10 12 12 13 13 14 15 17 18 22 23 24 23 23 24 25 26 28 28 28 29 29 28 30 26 24 25 25 28 28 29 30 22 24 24 24 20 32 24 24 34 20
10 11 11 11 11 11 12 14 14 12 13 12 13 16 17 18 22 24 24 25 24 27 29 30 32 31 31 31 31 30 28 27 24 25 25 25 23 26 24 22 28 20 22 25 17 23 26 36 20
9 10 10 11 11 13 12 14 15 13 13 12 13 17 16 18 22 23 25 25 27 30 32 34 35 35 35 33 32 31 28 24 22 23 23 24 26 22 36 32 35 22 20 18 32 22 23 39 24
8 9 10 11 11 12 14 12 11 11 13 14 16 17 16 19 21 21 23 25 28 31 34 35 37 36 35 32 30 29 26 22 20 21 22 22 27 33 27 30 25 22 21 20 21 22 26 32 23
9 10 8 7 11 13 13 14 12 14 15 16 18 18 17 19 20 22 23 25 28 31 34 36 36 35 33 31 29 26 23 19 17 19 19 20 21 30 27 31 27 29 28 24 17 24 23 25 21
9 9 9 11 10 13 13 16 15 18 20 16 18 18 17 18 19 20 23 25 27 31 34 35 33 32 31 29 27 24 20 16 15 17 18 18 19 25 33 30 27 30 28 29 25 28 20 14 25
7 11 11 12 13 17 18 19 12 15 21 15 16 16 15 15 16 20 22 25 28 31 33 34 32 31 31 28 26 23 19 15 14 16 16 16 16 16 26 33 30 36 17 29 22 22 22 17 20
12 12 14 14 16 18 16 20 15 17 20 19 15 11 12 13 14 17 21 24 28 30 33 33 31 30 30 27 22 24 17 11 13 14 15 14 15 15 18 27 37 29 18 23 29 17 22 21 25
12 12 14 14 12 19 19 19 17 14 11 7 6 8 10 11 13 17 21 24 28 30 34 33 30 28 28 28 25 20 10 7 11 11 11 12 14 16 16 21 31 20 21 25 32 24 21 31 24
11 13 13 14 17 18 15 15 5 4 6 4 6 7 9 11 13 17 22 25 28 30 33 32 29 24 28 27 22 12 3 6 9 9 10 11 12 12 15 21 30 17 28 20 22 13 13 24 28
13 11 13 15 14 7 16 6 8 7 7 6 7 7 9 11 14 17 22 25 28 30 33 32 27 22 24 24 19 12 3 4 7 8 10 13 14 15 13 17 29 21 24 14 21 15 17 17 17
10 11 14 16 16 11 5 3 2 3 7 6 7 8 10 12 14 18 22 25 28 30 32 31 27 18 21 21 18 9 3 2 4 6 9 12 11 11 11 15 30 31 27 21 19 23 20 22 22
10 12 14 12 8 1 2 4 3 2 5 6 6 8 11 13 15 18 23 25 28 31 31 28 26 18 17 21 14 10 4 2 3 4 8 9 6 9 7 14 26 31 30 24 25 21 16 24 27
9 6 5 4 3 3 3 9 5 6 4 2 6 9 11 13 17 20 22 25 26 30 31 28 26 21 18 20 14 9 3 2 3 5 5 5 12 3 6 12 19 27 27 27 26 24 23 18 26
6 4 3 5 1 5 12 6 2 1 4 2 8 9 12 15 20 23 22 22 24 28 30 28 25 22 17 16 16 6 4 4 4 4 8 5 8 6 9 14 18 23 28 29 25 25 22 15 24
5 5 4 3 3 3 4 6 8 9 6 1 10 13 15 17 20 23 23 19 21 25 29 28 24 20 20 16 13 7 5 5 5 7 9 7 11 2 2 19 16 23 26 24 19 23 17 18 21
10 6 3 4 1 3 5 8 11 6 7 1 11 15 19 20 20 20 21 16 18 21 27 29 23 21 13 15 14 10 7 3 1 2 8 6 5 2 8 18 16 24 23 21 22 22 15 24 22
11 11 8 5 3 4 1 6 5 8 5 8 13 22 25 24 21 17 19 15 14 18 22 27 25 23 19 9 10 10 10 4 4 5 6 5 3 8 18 18 22 16 20 19 21 17 18 20 23
13 12 12 6 6 7 2 12 12 16 15 12 12 26 28 24 19 16 16 13 10 14 19 23 25 23 22 18 10 6 9 10 8 8 7 6 9 15 21 19 20 16 19 19 19 21 17 20 20